Location: Baia Mare
(47.6567°N, 23.5850°E)
Time: 19:17:50
(UTC+03:00)

Envisat - Pass Details

Date: 25 January 2022
Orbit: 764 x 765 km, 98.2° (Epoch: 19 May)

Event Time Altitude Azimuth Distance (km) Brightness Sun altitude
Rises 06:52:42 0° 2° (N) 3,242 6.1 -11.5°
Reaches altitude 10° 06:55:33 10° 346° (NNW) 2,311 5.2 -11.0°
Maximum altitude 06:59:09 20° 301° (WNW) 1,725 4.2 -10.4°
Drops below altitude 10° 07:02:44 10° 255° (WSW) 2,302 5.0 -9.9°
Sets 07:05:34 0° 239° (WSW) 3,224 5.8 -9.4°
